SWA821 KBWI-MDPC

Flight info

Callsign SWA821
Flight time N/A
Altitude 36000
Route CONLE5 SCOOB DCT EARZZ DCT SKARP Y313 IDOLS DCT CANIT/N0455F370 DCT NUCAR Y355 OMALY DCT HAGIT DCT POKEG POKEG1W
Aircraft B738/M-SDE2E3FGHIRWXY/LB1

Departure

Time 2026-05-04 09:02
Airport Baltimore/Washington International Thurgood Marshall Airport (KBWI)

Arrival

Time N/A
Airport Punta Cana International Airport (MDPC)
Time Latitude Longitude Altitude Speed Heading
2026-05-04 08:31 39.17611 -76.66861 155 ft 0 kts 314°
2026-05-04 08:54 39.17616 -76.66776 155 ft 4 kts 182°
2026-05-04 08:55 39.17638 -76.66774 155 ft 4 kts 180°
2026-05-04 08:55 39.17664 -76.66780 155 ft 4 kts 153°
2026-05-04 08:55 39.17686 -76.66799 155 ft 4 kts 141°
2026-05-04 08:55 39.17695 -76.66809 155 ft 0 kts 142°
2026-05-04 09:01 39.17286 -76.65660 140 ft 0 kts 274°
2026-05-04 09:01 39.17286 -76.65665 140 ft 7 kts 274°
2026-05-04 09:01 39.17309 -76.66042 144 ft 77 kts 274°
2026-05-04 09:02 39.17364 -76.67010 149 ft 138 kts 274°
2026-05-04 09:02 39.17456 -76.68433 292 ft 176 kts 275°
2026-05-04 09:02 39.17582 -76.69968 1143 ft 172 kts 273°
2026-05-04 09:02 39.17720 -76.71448 2061 ft 164 kts 272°
2026-05-04 09:03 39.17785 -76.72941 2687 ft 170 kts 262°
2026-05-04 09:03 39.17421 -76.74346 3444 ft 162 kts 235°
2026-05-04 09:03 39.16576 -76.75316 4051 ft 169 kts 204°
2026-05-04 09:03 39.15337 -76.75503 4446 ft 197 kts 172°
2026-05-04 09:04 39.14037 -76.74675 4650 ft 222 kts 148°
2026-05-04 09:04 39.12727 -76.73465 4863 ft 239 kts 148°
2026-05-04 09:04 39.11366 -76.72204 5257 ft 247 kts 148°
2026-05-04 09:04 39.09958 -76.70906 5802 ft 250 kts 148°
2026-05-04 09:05 39.08521 -76.69594 6341 ft 255 kts 149°
2026-05-04 09:05 39.07057 -76.68267 6893 ft 263 kts 149°
2026-05-04 09:05 39.05512 -76.66874 7359 ft 277 kts 149°
2026-05-04 09:05 39.03930 -76.65419 7929 ft 288 kts 145°
2026-05-04 09:06 39.02549 -76.63537 8498 ft 297 kts 133°
2026-05-04 09:07 38.91161 -76.49463 11618 ft 362 kts 177°
2026-05-04 09:08 38.88676 -76.49542 12256 ft 356 kts 195°
2026-05-04 09:08 38.86246 -76.50223 12906 ft 360 kts 198°
2026-05-04 09:08 38.83839 -76.51009 13531 ft 363 kts 203°
2026-05-04 09:08 38.81459 -76.52129 13991 ft 363 kts 207°
2026-05-04 09:09 38.79116 -76.53358 13979 ft 364 kts 208°
2026-05-04 09:09 38.76803 -76.54562 14048 ft 368 kts 207°
2026-05-04 09:09 38.74390 -76.55719 14618 ft 372 kts 206°
2026-05-04 09:09 38.71955 -76.56851 15392 ft 372 kts 206°
2026-05-04 09:10 38.69524 -76.57978 16122 ft 373 kts 206°
2026-05-04 09:10 38.67067 -76.59124 16748 ft 378 kts 206°
2026-05-04 09:10 38.64583 -76.60289 17377 ft 381 kts 206°
2026-05-04 09:10 38.62077 -76.61468 18035 ft 385 kts 206°
2026-05-04 09:11 38.59586 -76.62641 18618 ft 388 kts 206°
2026-05-04 09:11 38.57041 -76.63839 19214 ft 388 kts 207°
2026-05-04 09:11 38.54508 -76.65028 19971 ft 386 kts 207°
2026-05-04 09:11 38.51980 -76.66220 20526 ft 389 kts 207°
2026-05-04 09:12 38.49433 -76.67422 21028 ft 392 kts 207°
2026-05-04 09:12 38.46860 -76.68632 21568 ft 394 kts 207°
2026-05-04 09:14 38.26720 -76.69139 24875 ft 439 kts 181°
2026-05-04 09:14 38.23685 -76.68625 25280 ft 440 kts 181°
2026-05-04 09:14 38.20640 -76.68125 25664 ft 442 kts 181°
2026-05-04 09:14 38.17578 -76.67632 26045 ft 444 kts 181°
2026-05-04 09:15 38.14502 -76.67140 26412 ft 446 kts 181°
2026-05-04 09:15 38.11401 -76.66643 26778 ft 447 kts 181°
2026-05-04 09:15 38.08358 -76.66221 27253 ft 443 kts 184°
2026-05-04 09:15 38.05289 -76.65961 27625 ft 443 kts 186°
2026-05-04 09:17 37.80765 -76.64437 31264 ft 429 kts 186°
2026-05-04 09:18 37.77785 -76.64239 31619 ft 429 kts 186°
2026-05-04 09:18 37.74808 -76.64041 31990 ft 427 kts 186°
2026-05-04 09:18 37.71849 -76.63843 32421 ft 425 kts 186°
2026-05-04 09:18 37.68911 -76.63645 32907 ft 421 kts 186°
2026-05-04 09:19 37.65998 -76.63451 33313 ft 419 kts 186°
2026-05-04 09:19 37.63085 -76.63258 33629 ft 418 kts 186°
2026-05-04 09:19 37.60214 -76.63071 33969 ft 417 kts 187°
2026-05-04 09:19 37.57341 -76.63122 34084 ft 412 kts 194°
2026-05-04 09:20 37.51639 -76.63923 34112 ft 410 kts 195°
2026-05-04 09:20 37.46030 -76.64756 34103 ft 403 kts 195°
2026-05-04 09:21 37.40449 -76.65556 34097 ft 403 kts 195°
2026-05-04 09:21 37.34914 -76.66324 34106 ft 403 kts 195°
2026-05-04 09:22 37.29328 -76.67089 34113 ft 404 kts 195°
2026-05-04 09:22 37.23739 -76.67851 34103 ft 405 kts 195°
2026-05-04 09:23 37.18127 -76.68615 34079 ft 405 kts 194°
2026-05-04 09:23 37.12507 -76.69378 34104 ft 406 kts 194°
2026-05-04 09:25 36.89931 -76.72433 34116 ft 409 kts 194°
2026-05-04 09:26 36.84257 -76.73198 34128 ft 410 kts 194°
2026-05-04 09:26 36.78574 -76.73963 34128 ft 411 kts 194°
2026-05-04 09:27 36.72916 -76.74724 34091 ft 411 kts 194°
2026-05-04 09:27 36.67223 -76.75488 34118 ft 411 kts 194°
2026-05-04 09:28 36.61520 -76.76252 34135 ft 412 kts 194°
2026-05-04 09:28 36.55809 -76.77017 34127 ft 412 kts 194°
2026-05-04 09:29 36.50088 -76.77781 34129 ft 413 kts 194°
2026-05-04 09:29 36.44400 -76.78540 34118 ft 413 kts 194°
2026-05-04 09:30 36.38676 -76.79303 34132 ft 414 kts 194°
2026-05-04 09:30 36.32944 -76.80068 34446 ft 417 kts 194°
2026-05-04 09:31 36.30060 -76.80450 34730 ft 416 kts 194°
2026-05-04 09:31 36.27181 -76.80831 35009 ft 415 kts 194°
2026-05-04 09:31 36.24298 -76.81213 35204 ft 416 kts 194°
2026-05-04 09:31 36.21406 -76.81598 35384 ft 417 kts 194°
2026-05-04 09:32 36.18511 -76.81982 35592 ft 418 kts 194°
2026-05-04 09:32 36.15648 -76.82361 35840 ft 417 kts 194°
2026-05-04 09:34 35.95371 -76.85036 36135 ft 416 kts 194°
2026-05-04 09:34 35.92493 -76.85420 36139 ft 415 kts 194°
2026-05-04 09:34 35.86985 -76.87133 36153 ft 405 kts 205°
2026-05-04 09:35 35.81612 -76.89310 36152 ft 407 kts 205°
2026-05-04 09:35 35.76195 -76.91479 36130 ft 410 kts 204°
2026-05-04 09:37 35.55207 -76.99745 36147 ft 416 kts 204°
2026-05-04 09:38 35.48781 -77.02263 36137 ft 416 kts 204°
2026-05-04 09:38 35.44194 -77.04058 36148 ft 416 kts 204°
2026-05-04 09:39 35.38673 -77.06216 36147 ft 416 kts 204°
2026-05-04 09:39 35.33151 -77.08371 36147 ft 416 kts 204°
2026-05-04 09:40 35.27638 -77.10520 36146 ft 415 kts 204°
2026-05-04 09:40 35.22121 -77.12667 36148 ft 415 kts 204°
2026-05-04 09:42 35.00199 -77.21170 36161 ft 413 kts 204°
2026-05-04 09:43 34.94721 -77.23288 36166 ft 413 kts 204°
2026-05-04 09:43 34.89234 -77.25406 36152 ft 414 kts 204°
2026-05-04 09:44 34.83761 -77.27516 36154 ft 416 kts 204°
2026-05-04 09:46 34.61496 -77.36068 36147 ft 423 kts 204°
2026-05-04 09:46 34.55876 -77.38219 36139 ft 423 kts 203°
2026-05-04 09:47 34.50256 -77.40367 36147 ft 424 kts 203°
2026-05-04 09:49 34.26768 -77.45277 36129 ft 428 kts 195°
2026-05-04 09:51 34.06227 -77.49286 36133 ft 426 kts 195°
2026-05-04 09:51 34.00365 -77.50426 36138 ft 426 kts 195°
2026-05-04 09:52 33.94497 -77.51565 36141 ft 426 kts 195°
2026-05-04 09:52 33.88664 -77.52697 36139 ft 427 kts 195°
2026-05-04 09:53 33.82802 -77.53832 36116 ft 427 kts 195°
2026-05-04 09:53 33.76934 -77.54967 36130 ft 426 kts 195°
2026-05-04 09:54 33.71078 -77.56098 36140 ft 426 kts 195°
2026-05-04 09:54 33.65253 -77.57222 36138 ft 426 kts 195°
2026-05-04 09:55 33.59388 -77.58352 36139 ft 426 kts 195°
2026-05-04 09:55 33.53552 -77.59543 36142 ft 424 kts 196°
2026-05-04 09:56 33.47718 -77.60837 36145 ft 432 kts 196°
2026-05-04 09:56 33.41778 -77.62154 36139 ft 435 kts 196°
2026-05-04 09:57 33.35802 -77.63462 36144 ft 437 kts 196°
2026-05-04 09:57 33.29825 -77.64759 36133 ft 432 kts 196°
2026-05-04 09:58 33.23969 -77.66024 36139 ft 425 kts 196°
2026-05-04 09:58 33.18178 -77.67281 36142 ft 426 kts 196°
2026-05-04 10:00 32.94784 -77.72336 36143 ft 427 kts 196°
2026-05-04 10:04 32.54023 -77.81075 36137 ft 423 kts 196°
2026-05-04 10:04 32.48248 -77.82308 36269 ft 426 kts 196°
2026-05-04 10:04 32.45334 -77.82929 36532 ft 424 kts 196°
2026-05-04 10:05 32.42429 -77.83547 36836 ft 423 kts 196°
2026-05-04 10:05 32.39540 -77.84160 37121 ft 420 kts 196°
2026-05-04 10:05 32.36646 -77.84776 37124 ft 424 kts 196°
2026-05-04 10:06 32.30825 -77.86014 37127 ft 423 kts 196°
2026-05-04 10:06 32.25104 -77.87224 37136 ft 417 kts 197°
2026-05-04 10:08 32.05222 -77.91437 37160 ft 421 kts 197°
2026-05-04 10:08 31.99435 -77.92658 37143 ft 422 kts 197°
2026-05-04 10:09 31.93691 -77.93866 37146 ft 421 kts 197°
2026-05-04 10:09 31.87931 -77.95076 37145 ft 419 kts 197°
2026-05-04 10:10 31.82190 -77.96282 37146 ft 419 kts 197°
2026-05-04 10:10 31.76423 -77.97497 37126 ft 425 kts 197°
2026-05-04 10:11 31.70566 -77.98727 37146 ft 430 kts 197°
2026-05-04 10:11 31.64701 -77.99950 37132 ft 424 kts 197°
2026-05-04 10:12 31.58939 -78.01149 37143 ft 419 kts 197°
2026-05-04 10:12 31.53210 -78.02347 37145 ft 418 kts 197°
2026-05-04 10:13 31.47483 -78.03543 37144 ft 417 kts 197°
2026-05-04 10:13 31.41768 -78.04734 37145 ft 416 kts 197°
2026-05-04 10:14 31.36068 -78.05920 37144 ft 416 kts 197°
2026-05-04 10:16 31.13323 -78.10637 37147 ft 414 kts 198°
2026-05-04 10:16 31.07647 -78.11812 37146 ft 414 kts 198°
2026-05-04 10:17 31.01974 -78.12983 37142 ft 414 kts 198°
2026-05-04 10:19 30.79401 -78.17631 37142 ft 411 kts 198°
2026-05-04 10:19 30.73787 -78.18784 37136 ft 411 kts 198°
2026-05-04 10:20 30.68156 -78.19938 37091 ft 409 kts 199°
2026-05-04 10:20 30.62546 -78.21086 37123 ft 408 kts 199°
2026-05-04 10:21 30.56980 -78.22225 37133 ft 407 kts 199°
2026-05-04 10:21 30.51403 -78.23365 37130 ft 407 kts 199°
2026-05-04 10:22 30.43029 -78.25074 37129 ft 406 kts 199°
2026-05-04 10:23 30.37496 -78.26200 37115 ft 404 kts 199°
2026-05-04 10:25 30.15512 -78.30666 37124 ft 398 kts 199°
2026-05-04 10:25 30.10969 -78.31587 37125 ft 398 kts 199°
2026-05-04 10:26 30.05516 -78.32692 37124 ft 398 kts 199°
2026-05-04 10:26 30.00044 -78.33799 37123 ft 398 kts 199°
2026-05-04 10:27 29.94587 -78.34901 37120 ft 398 kts 199°
2026-05-04 10:27 29.89160 -78.35996 37122 ft 398 kts 199°
2026-05-04 10:28 29.83701 -78.37095 37110 ft 397 kts 200°
2026-05-04 10:28 29.78243 -78.38194 37117 ft 397 kts 200°
2026-05-04 10:29 29.72790 -78.39291 37117 ft 398 kts 200°
2026-05-04 10:29 29.67334 -78.40387 37114 ft 398 kts 200°
2026-05-04 10:30 29.61917 -78.41474 37109 ft 398 kts 200°
2026-05-04 10:30 29.59133 -78.41833 37061 ft 410 kts 191°
2026-05-04 10:30 29.56247 -78.41567 37114 ft 422 kts 183°
2026-05-04 10:30 29.53330 -78.40839 37094 ft 435 kts 175°
2026-05-04 10:31 29.50466 -78.39517 37110 ft 448 kts 167°
2026-05-04 10:32 29.30873 -78.28389 37050 ft 448 kts 166°
2026-05-04 10:33 29.25270 -78.25265 37090 ft 447 kts 167°
2026-05-04 10:33 29.19676 -78.22157 37101 ft 446 kts 167°
2026-05-04 10:34 29.14124 -78.19075 37092 ft 446 kts 167°
2026-05-04 10:34 29.08534 -78.15973 37094 ft 446 kts 167°
2026-05-04 10:35 29.02941 -78.12874 37087 ft 446 kts 167°
2026-05-04 10:35 28.97344 -78.09774 37055 ft 446 kts 167°
2026-05-04 10:36 28.91761 -78.06686 37072 ft 446 kts 167°
2026-05-04 10:36 28.86171 -78.03600 37086 ft 446 kts 167°
2026-05-04 10:37 28.80610 -78.00534 37071 ft 447 kts 167°
2026-05-04 10:37 28.74989 -77.97437 37072 ft 448 kts 167°
2026-05-04 10:39 28.55331 -77.86632 37066 ft 447 kts 167°
2026-05-04 10:40 28.49760 -77.83580 37063 ft 448 kts 167°
2026-05-04 10:40 28.44148 -77.80507 37058 ft 447 kts 167°
2026-05-04 10:41 28.38533 -77.77436 37007 ft 447 kts 168°
2026-05-04 10:41 28.32932 -77.74376 37036 ft 446 kts 168°
2026-05-04 10:42 28.27329 -77.71320 37051 ft 446 kts 168°
2026-05-04 10:42 28.21724 -77.68266 37038 ft 447 kts 168°
2026-05-04 10:43 28.16145 -77.65229 37039 ft 447 kts 168°
2026-05-04 10:44 27.99175 -77.47497 37026 ft 484 kts 146°
2026-05-04 10:45 27.96856 -77.44733 37028 ft 484 kts 146°
2026-05-04 10:45 27.92196 -77.39232 37025 ft 484 kts 146°
2026-05-04 10:46 27.87525 -77.33748 37025 ft 484 kts 146°
2026-05-04 10:46 27.82879 -77.28300 37015 ft 484 kts 146°
2026-05-04 10:47 27.78205 -77.22823 36978 ft 484 kts 146°
2026-05-04 10:47 27.73533 -77.17349 37008 ft 481 kts 146°
2026-05-04 10:49 27.54987 -76.95710 37003 ft 479 kts 146°
2026-05-04 10:50 27.50347 -76.90313 37002 ft 479 kts 146°
2026-05-04 10:52 27.32038 -76.69084 37002 ft 477 kts 146°
2026-05-04 10:52 27.27432 -76.63762 37002 ft 477 kts 146°
2026-05-04 10:54 27.08859 -76.42357 36998 ft 479 kts 145°
2026-05-04 10:56 26.92532 -76.25065 36232 ft 426 kts 147°
2026-05-04 10:56 26.90404 -76.22854 36462 ft 411 kts 149°
2026-05-04 10:56 26.88309 -76.20683 36695 ft 409 kts 150°
2026-05-04 10:57 26.86208 -76.18518 36844 ft 412 kts 150°
2026-05-04 10:57 26.81936 -76.14130 36896 ft 422 kts 149°
2026-05-04 10:58 26.77571 -76.09633 36965 ft 431 kts 148°
2026-05-04 10:58 26.73140 -76.05058 36996 ft 441 kts 147°
2026-05-04 10:59 26.68570 -76.00342 37003 ft 452 kts 147°
2026-05-04 10:59 26.63894 -75.95520 37007 ft 462 kts 147°
2026-05-04 11:00 26.59104 -75.90587 37008 ft 472 kts 147°
2026-05-04 11:02 26.39435 -75.70375 36978 ft 483 kts 146°
2026-05-04 11:05 26.02281 -75.32502 37002 ft 484 kts 146°
2026-05-04 11:06 25.97311 -75.27465 37006 ft 487 kts 146°